Regional Weather Roundup
Issued by NWS

Home | Current Version | Previous Version | Graphics & Text | Print | Product List | Glossary On
Versions: 1 2 3 4 5 6 7 8 9 10 11 12 13 14 15 16 17 18 19 20 21 22 23 24 25 26 27 28 29 30 31 32 33 34 35 36 37 38 39 40 41 42 43 44 45 46 47 48 49 50
000
ASUS43 KOAX 091402
RWRNE

WEATHER ROUNDUP FOR NEBRASKA
NATIONAL WEATHER SERVICE OMAHA NE
800 AM CST FRI DEC 09 2016

NOTES: SATELLITE DATA IS BEING USED TO AUGMENT CLOUD COVER ABOVE
       12000 FEET.
       "FAIR" INDICATES FEW OR NO CLOUDS BELOW 12,000 FEET WITH NO
       SIGNIFICANT WEATHER AND/OR OBSTRUCTIONS TO VISIBILITY.

  * THESE STATIONS DO NOT REPORT WEATHER SUCH AS RAIN...SNOW OR FOG.

NEZ001>004-019>022-054>056-091500-
NEBRASKA PANHANDLE

CITY           SKY/WX    TMP DP  RH WIND       PRES   REMARKS
SCOTTSBLUFF    CLOUDY    17   8  67 E10       30.11R WCI   5
ALLIANCE       CLOUDY    10   4  76 SE8       30.14R WCI  -2
CHADRON        CLOUDY     5  -1  76 N7        30.25R WCI  -7
KIMBALL        CLOUDY    10   6  83 S6        30.07S WCI   1
SIDNEY         CLOUDY    12   5  73 S12       30.13R WCI  -2
$$

NEZ057>060-069>072-079>082-091500-
SOUTHWEST NEBRASKA

CITY           SKY/WX    TMP DP  RH WIND       PRES   REMARKS
NORTH PLATTE   CLOUDY    14   4  64 SE12      30.33F WCI   0
IMPERIAL       CLOUDY    11   4  73 SE8       30.26S WCI  -1
LEXINGTON      CLOUDY    15   8  73 S10       30.40F WCI   2
MCCOOK         CLOUDY    15   8  73 SE13      30.36F WCI   1
OGALLALA       CLOUDY    14   7  73 S9        30.25S WCI   2
$$

NEZ005>010-023>029-035>040-094-091500-
NORTH CENTRAL NEBRASKA

CITY           SKY/WX    TMP DP  RH WIND       PRES   REMARKS
VALENTINE      CLOUDY     6   1  80 E9        30.38S WCI  -8
AINSWORTH      CLOUDY     8   4  82 SE5       30.39S WCI   0
BROKEN BOW     CLOUDY     9   4  80 SE10      30.39F WCI  -5
O`NEILL        CLOUDY     7   4  86 E3        30.49S
THEDFORD       FLURRIES  12   4  70 SE8       30.34R WCI   1
$$

NEZ041-046>049-061>064-073>077-083>087-091500-
SOUTH CENTRAL NEBRASKA

CITY           SKY/WX    TMP DP  RH WIND       PRES   REMARKS
GRAND ISLAND   CLOUDY    11   6  81 SE8       30.51R WCI  -1
AURORA         CLOUDY    11   6  79 SE9       30.53R WCI  -2
HASTINGS       CLOUDY    13   6  74 SE9       30.50F WCI   1
HEBRON         CLOUDY    14   8  79 E3        30.56S
HOLDREGE       CLOUDY    15   7  71 S10       30.44R WCI   2
KEARNEY *      CLOUDY    12   7  79 SE6       30.46S WCI   3
YORK           CLOUDY    10   7  85 SE7       30.55R WCI   0
$$

NEZ011>018-030>034-042>045-091500-
NORTHEAST NEBRASKA

CITY           SKY/WX    TMP DP  RH WIND       PRES   REMARKS
NORFOLK        CLOUDY     5   1  83 E3        30.54S
ALBION         CLOUDY     6   2  82 SE6       30.51F WCI  -4
BLAIR          PTCLDY     8   4  85 CALM      30.58S
FREMONT        PTCLDY     6   3  84 CALM      30.60S
TEKAMAH        CLOUDY     7   2  80 CALM      30.63R
WAYNE          CLOUDY     3  -1  83 CALM      30.57F
$$

NEZ050>053-065>068-078-088>093-091500-
SOUTHEAST NEBRASKA

CITY           SKY/WX    TMP DP  RH WIND       PRES   REMARKS
LINCOLN        CLOUDY     9   3  77 CALM      30.62R
OMAHA EPPLEY   MOCLDY     9   3  77 CALM      30.62F
BEATRICE       CLOUDY    10   6  85 CALM      30.59S
FALLS CITY     CLOUDY    10   6  84 CALM      30.63R
NEBRASKA CITY  CLOUDY    10   3  74 CALM      30.61R
PLATTSMOUTH    CLOUDY     8   3  78 CALM      30.60S
$$

NEZ044-045-051>053-067-091500-
OMAHA AREA

CITY           SKY/WX    TMP DP  RH WIND       PRES   REMARKS
OMAHA EPPLEY   MOCLDY     9   3  77 CALM      30.62F
BLAIR          PTCLDY     8   4  85 CALM      30.58S
FREMONT        PTCLDY     6   3  84 CALM      30.60S
MILLARD        PTCLDY    12   6  77 CALM      30.62S
OFFUTT AFB     CLOUDY     9   6  89 CALM      30.61F
PLATTSMOUTH    CLOUDY     8   3  78 CALM      30.60S
WAHOO          FAIR       7   3  83 CALM      30.60S
$$




USA.gov is the U.S. government's official web portal to all federal, state and local government web resources and services.